Location: Clarion
(42.7316°N, 93.7330°W)
Time: 08:42:40
(UTC+00:00)

Gblst 52 Del rocket - Pass Details

Date: 22 April 2026
Orbit: 804 x 1364 km, 51.5° (Epoch: 17 May)

Event Time Altitude Azimuth Distance (km) Brightness Sun altitude
Rises 01:43:00 0° 231° (SW) 3,360 7.7 -7.5°
Reaches altitude 10° 01:45:22 10° 230° (SW) 2,469 7.0 -7.9°
Maximum altitude 01:51:08 81° 144° (SE) 931 4.4 -8.8°
Drops below altitude 10° 01:57:42 10° 58° (ENE) 2,802 6.6 -9.9°
Sets 02:00:32 0° 58° (ENE) 3,845 7.3 -10.4°
